Zurück zum Katalog

STARLINK-2153

AktivKommunikationVLEO
NORAD 48009·PAYLOAD·🇺🇸 United States

Gestartet Mar 24, 2021 von Cape Canaveral Space Force Station

Loading…

Nächste Überflüge (nächste 24 Stunden)

TLE

AktuellSource: CelesTrak SupGP

Epoche: Sep 14, 2026, 21:35 UTC

1 48009C 21024AJ  26257.89979167  .00006132  00000+0  14278-3 0  2571
2 48009  53.1572 146.8360 0001910 143.2589 355.6415 15.41701391    19

Verfolge STARLINK-2153 in Echtzeit mit AllMySat

Download on the App Store